When you browse on this site, cookies collect data to enhance your experience and personalize the content and advertising you see.
Visit our Privacy Policy to learn more. By continuing to use the site, you agree to this use of cookies and data.
  • In France
  • List of Countries
  • For 7 days
  • Water Temperature
  • Weather Map
  • Weather Widgets
  • user-avatar
    Login

    Hourly Weather Sozopol

    Today, 13 December, Friday

    Time Temperature Precipitation Wind Pressure Humidity
    00:00 +10°C° 0 mm 2 mps 751 mmHg 89%
    01:00 +10°C° 0 mm 2 mps 750 mmHg 90%
    02:00 +10°C° 0 mm 2 mps 750 mmHg 89%
    03:00 +9°C° 0 mm 2 mps 750 mmHg 89%
    04:00 +9°C° 0 mm 2 mps 750 mmHg 90%
    05:00 +10°C° 0 mm 1 mps 749 mmHg 90%
    06:00 +10°C° 0 mm 1 mps 749 mmHg 90%
    07:00 +10°C° 0 mm 1 mps 749 mmHg 90%
    08:00 +10°C° 0 mm 1 mps 749 mmHg 91%
    09:00 +11°C° 0 mm 1 mps 749 mmHg 87%
    10:00 +12°C° 0 mm 1 mps 749 mmHg 83%
    11:00 +13°C° 0 mm 1 mps 749 mmHg 79%
    12:00 +13°C° 0 mm 2 mps 748 mmHg 78%
    13:00 +14°C° 0 mm 2 mps 748 mmHg 76%
    14:00 +13°C° 0 mm 3 mps 747 mmHg 74%
    15:00 +12°C° 0.1 mm 3 mps 747 mmHg 79%
    16:00 +12°C° 0.1 mm 3 mps 747 mmHg 84%
    17:00 +11°C° 0.1 mm 3 mps 746 mmHg 88%
    18:00 +11°C° 0.1 mm 3 mps 746 mmHg 88%
    19:00 +10°C° 0.1 mm 3 mps 747 mmHg 88%
    20:00 +10°C° 0.1 mm 3 mps 747 mmHg 88%
    21:00 +10°C° 0 mm 3 mps 746 mmHg 87%
    22:00 +10°C° 0 mm 3 mps 746 mmHg 86%
    23:00 +10°C° 0 mm 4 mps 746 mmHg 85%

    Tomorrow, 14 December, Saturday

    Time Temperature Precipitation Wind Pressure Humidity
    00:00 +10°C° 0 mm 4 mps 746 mmHg 86%
    01:00 +10°C° 0 mm 3 mps 746 mmHg 86%
    02:00 +10°C° 0 mm 3 mps 746 mmHg 87%
    03:00 +10°C° 0 mm 4 mps 745 mmHg 87%
    04:00 +10°C° 0 mm 4 mps 745 mmHg 88%
    05:00 +10°C° 0 mm 4 mps 745 mmHg 88%
    06:00 +8°C° 0 mm 4 mps 745 mmHg 88%
    07:00 +8°C° 0 mm 4 mps 745 mmHg 89%
    08:00 +8°C° 0 mm 4 mps 746 mmHg 89%
    09:00 +11°C° 0 mm 4 mps 746 mmHg 82%
    10:00 +12°C° 0 mm 4 mps 746 mmHg 75%
    11:00 +14°C° 0 mm 4 mps 747 mmHg 68%
    12:00 +15°C° 0 mm 4 mps 747 mmHg 67%
    13:00 +15°C° 0 mm 4 mps 747 mmHg 67%
    14:00 +15°C° 0 mm 4 mps 747 mmHg 66%
    15:00 +14°C° 0 mm 4 mps 748 mmHg 70%
    16:00 +13°C° 0 mm 3 mps 748 mmHg 75%
    17:00 +12°C° 0 mm 3 mps 749 mmHg 79%
    18:00 +12°C° 0 mm 3 mps 750 mmHg 80%
    19:00 +12°C° 0 mm 2 mps 750 mmHg 81%
    20:00 +12°C° 0 mm 2 mps 751 mmHg 82%
    21:00 +12°C° 0 mm 1 mps 752 mmHg 80%
    22:00 +12°C° 0 mm 1 mps 752 mmHg 79%
    23:00 +12°C° 0 mm 1 mps 753 mmHg 77%

    Day after tomorrow, 15 December, Sunday

    Time Temperature Precipitation Wind Pressure Humidity
    00:00 +12°C° 0 mm 1 mps 754 mmHg 76%
    01:00 +12°C° 0 mm 1 mps 754 mmHg 75%
    02:00 +12°C° 0 mm 1 mps 755 mmHg 74%
    03:00 +12°C° 0 mm 2 mps 755 mmHg 77%
    04:00 +10°C° 0 mm 3 mps 756 mmHg 79%
    05:00 +10°C° 0 mm 4 mps 756 mmHg 81%
    06:00 +10°C° 0 mm 3 mps 757 mmHg 81%
    07:00 +10°C° 0 mm 3 mps 758 mmHg 82%
    08:00 +10°C° 0 mm 3 mps 759 mmHg 83%
    09:00 +12°C° 0 mm 2 mps 759 mmHg 79%
    10:00 +12°C° 0 mm 2 mps 760 mmHg 74%
    11:00 +13°C° 0 mm 2 mps 760 mmHg 70%
    12:00 +14°C° 0 mm 2 mps 760 mmHg 67%
    13:00 +14°C° 0 mm 2 mps 761 mmHg 64%
    14:00 +15°C° 0 mm 1 mps 761 mmHg 61%
    15:00 +14°C° 0 mm 1 mps 761 mmHg 66%
    16:00 +13°C° 0 mm 1 mps 762 mmHg 70%
    17:00 +12°C° 0 mm 1 mps 762 mmHg 75%
    18:00 +12°C° 0 mm 1 mps 762 mmHg 77%
    19:00 +11°C° 0 mm 1 mps 763 mmHg 78%
    20:00 +11°C° 0 mm 1 mps 763 mmHg 80%
    21:00 +11°C° 0 mm 1 mps 764 mmHg 82%
    22:00 +11°C° 0 mm 1 mps 764 mmHg 83%
    23:00 +10°C° 0 mm 1 mps 764 mmHg 85%

    16 December, Monday

    Time Temperature Precipitation Wind Pressure Humidity
    00:00 +10°C° 0 mm 1 mps 764 mmHg 85%
    01:00 +10°C° 0 mm 1 mps 764 mmHg 86%
    02:00 +10°C° 0 mm 1 mps 764 mmHg 87%
    03:00 +9°C° 0 mm 2 mps 764 mmHg 87%
    04:00 +8°C° 0 mm 2 mps 765 mmHg 86%
    05:00 +8°C° 0 mm 2 mps 765 mmHg 86%
    06:00 +8°C° 0 mm 2 mps 765 mmHg 86%
    07:00 +9°C° 0 mm 1 mps 765 mmHg 86%
    08:00 +9°C° 0 mm 1 mps 765 mmHg 85%
    09:00 +11°C° 0 mm 1 mps 765 mmHg 80%
    10:00 +12°C° 0 mm 1 mps 766 mmHg 74%
    11:00 +14°C° 0 mm 1 mps 766 mmHg 68%
    12:00 +14°C° 0 mm 1 mps 765 mmHg 67%
    13:00 +15°C° 0 mm 1 mps 765 mmHg 66%
    14:00 +16°C° 0 mm 1 mps 765 mmHg 64%
    15:00 +14°C° 0 mm 1 mps 765 mmHg 71%
    16:00 +13°C° 0 mm 1 mps 765 mmHg 77%
    17:00 +12°C° 0 mm 2 mps 765 mmHg 83%
    18:00 +12°C° 0 mm 2 mps 765 mmHg 84%
    19:00 +10°C° 0 mm 2 mps 765 mmHg 86%
    20:00 +10°C° 0 mm 2 mps 765 mmHg 87%
    21:00 +10°C° 0 mm 2 mps 765 mmHg 87%
    22:00 +10°C° 0 mm 2 mps 765 mmHg 87%
    23:00 +10°C° 0 mm 2 mps 765 mmHg 87%

    17 December, Tuesday

    Time Temperature Precipitation Wind Pressure Humidity
    00:00 +10°C° 0 mm 1 mps 765 mmHg 87%
    01:00 +10°C° 0 mm 1 mps 765 mmHg 87%
    02:00 +10°C° 0 mm 1 mps 764 mmHg 87%
    03:00 +10°C° 0 mm 1 mps 764 mmHg 87%
    04:00 +10°C° 0 mm 1 mps 764 mmHg 87%
    05:00 +9°C° 0 mm 1 mps 764 mmHg 87%
    06:00 +9°C° 0 mm 1 mps 764 mmHg 87%
    07:00 +9°C° 0 mm 1 mps 765 mmHg 86%
    08:00 +9°C° 0 mm 1 mps 765 mmHg 86%
    09:00 +11°C° 0 mm 1 mps 765 mmHg 80%
    10:00 +13°C° 0 mm 1 mps 765 mmHg 74%
    11:00 +14°C° 0 mm 2 mps 765 mmHg 69%
    12:00 +15°C° 0 mm 2 mps 765 mmHg 66%
    13:00 +16°C° 0 mm 2 mps 764 mmHg 63%
    14:00 +16°C° 0 mm 2 mps 764 mmHg 61%
    15:00 +15°C° 0 mm 1 mps 764 mmHg 67%
    16:00 +14°C° 0 mm 1 mps 764 mmHg 73%
    17:00 +12°C° 0 mm 1 mps 764 mmHg 79%
    18:00 +12°C° 0 mm 1 mps 764 mmHg 79%
    19:00 +12°C° 0 mm 1 mps 764 mmHg 79%
    20:00 +11°C° 0 mm 1 mps 764 mmHg 80%
    21:00 +11°C° 0 mm 1 mps 764 mmHg 79%
    22:00 +10°C° 0 mm 2 mps 764 mmHg 79%
    23:00 +10°C° 0 mm 2 mps 764 mmHg 79%

    18 December, Wednesday

    Time Temperature Precipitation Wind Pressure Humidity
    00:00 +9°C° 0 mm 2 mps 764 mmHg 79%
    01:00 +9°C° 0 mm 2 mps 764 mmHg 79%
    02:00 +9°C° 0 mm 2 mps 764 mmHg 79%
    03:00 +9°C° 0 mm 2 mps 764 mmHg 79%
    04:00 +9°C° 0 mm 2 mps 764 mmHg 78%
    05:00 +9°C° 0 mm 2 mps 764 mmHg 78%
    06:00 +8°C° 0 mm 2 mps 764 mmHg 77%
    07:00 +8°C° 0 mm 2 mps 764 mmHg 77%
    08:00 +8°C° 0 mm 2 mps 764 mmHg 77%
    09:00 +10°C° 0 mm 2 mps 764 mmHg 71%
    10:00 +13°C° 0 mm 2 mps 764 mmHg 66%
    11:00 +14°C° 0 mm 2 mps 764 mmHg 61%
    12:00 +15°C° 0 mm 2 mps 764 mmHg 59%
    13:00 +16°C° 0 mm 2 mps 763 mmHg 56%
    14:00 +18°C° 0 mm 1 mps 763 mmHg 54%
    15:00 +15°C° 0 mm 1 mps 763 mmHg 59%
    16:00 +14°C° 0 mm 1 mps 763 mmHg 64%
    17:00 +13°C° 0 mm 2 mps 763 mmHg 69%
    18:00 +12°C° 0 mm 2 mps 763 mmHg 71%
    19:00 +12°C° 0 mm 2 mps 763 mmHg 73%
    20:00 +10°C° 0 mm 2 mps 763 mmHg 75%
    21:00 +10°C° 0 mm 2 mps 763 mmHg 74%
    22:00 +10°C° 0 mm 2 mps 763 mmHg 74%
    23:00 +10°C° 0 mm 2 mps 763 mmHg 74%
    Show more